Sigfox identifier Datetime Temperature Humidity SNR
003938FD 2018-10-09 09:31:09 20.2 40 20
003938FD 2018-10-09 08:29:16 20.2 39 19.8
003938FD 2018-10-09 07:27:25 20.2 39 19.8
003938FD 2018-10-09 06:25:35 20.2 39 19.6
003938FD 2018-10-09 05:23:48 20.2 39 19.2
003938FD 2018-10-09 01:16:35 20.1 39 18.1
003938FD 2018-10-09 00:14:46 20 39 17.8
003938FD 2018-10-08 23:12:57 20 39 17.3
003938FD 2018-10-08 22:11:06 20 39 16.8
003938FD 2018-10-08 21:09:17 20 39 16.5
003938FD 2018-10-08 20:07:29 20 38 15.6
003938FD 2018-10-08 19:05:38 19.9 38 15.3
003938FD 2018-10-08 18:03:49 19.9 38 14.4
003938FD 2018-10-08 17:02:00 19.8 38 14.3
003938FD 2018-10-08 16:00:09 19.8 38 13.6
003938FD 2018-10-08 14:58:18 19.8 38 13.6
003938FD 2018-10-08 13:56:28 19.8 38 13.5
003938FD 2018-10-08 12:54:39 19.8 38 12.9
003938FD 2018-10-08 11:52:46 19.7 37 12.8
003938FD 2018-10-08 10:50:53 19.7 37 13.1
003938FD 2018-10-08 09:49:04 19.7 38 13.5
003938FD 2018-10-08 08:47:12 19.7 38 13
003938FD 2018-10-08 07:45:27 19.7 38 12.7
003938FD 2018-10-08 06:43:40 19.8 38 12.7
003938FD 2018-10-08 05:41:49 19.8 39 12.2
003938FD 2018-10-08 04:40:03 19.8 39 12.2
003938FD 2018-10-08 03:38:17 19.8 39 12.1
003938FD 2018-10-08 02:36:27 19.8 39 12.5
003938FD 2018-10-08 01:34:39 19.8 40 12.3
003938FD 2018-10-08 00:32:50 19.9 40 12.7
003938FD 2018-10-07 23:31:02 19.9 40 13
003938FD 2018-10-07 22:29:15 20 40 13.5
003938FD 2018-10-07 21:27:26 20 40 13.6
003938FD 2018-10-07 20:25:37 20 40 13.8
003938FD 2018-10-07 19:23:47 20 40 13.7
003938FD 2018-10-07 18:21:58 20 40 13.8
003938FD 2018-10-07 17:20:13 20 40 13.9
003938FD 2018-10-07 16:18:24 20 40 13.9
003938FD 2018-10-07 15:16:38 20 40 13.8
003938FD 2018-10-07 14:14:48 20 40 13.8
003938FD 2018-10-07 13:12:58 20.1 40 13.8
003938FD 2018-10-07 12:11:09 20 41 14
003938FD 2018-10-07 11:09:23 20.1 41 14.4
003938FD 2018-10-07 10:07:31 20.2 41 14.4
003938FD 2018-10-07 09:05:42 20.2 41 14.2
003938FD 2018-10-07 08:03:53 20.2 41 14.1
003938FD 2018-10-07 07:02:06 20.2 41 14.4
003938FD 2018-10-07 06:00:19 20.2 41 14.4
003938FD 2018-10-07 04:58:34 20.2 41 14.3
003938FD 2018-10-07 03:56:48 20.2 41 14.3
003938FD 2018-10-07 02:55:00 20.2 41 14.6
003938FD 2018-10-07 01:53:14 20.2 41 14.6
003938FD 2018-10-07 00:51:29 20.3 41 14.5
003938FD 2018-10-06 23:49:42 20.3 41 14.6
003938FD 2018-10-06 22:47:55 20.3 41 14.3
003938FD 2018-10-06 21:46:08 20.4 41 13.9
003938FD 2018-10-06 20:44:22 20.4 41 13.9
003938FD 2018-10-06 19:42:36 20.4 41 14.1
003938FD 2018-10-06 18:40:46 20.4 42 14
003938FD 2018-10-06 17:39:00 20.4 42 14.2
003938FD 2018-10-06 16:37:12 20.4 42 14.2
003938FD 2018-10-06 15:35:23 20.4 42 15
003938FD 2018-10-06 14:33:36 20.4 42 15
003938FD 2018-10-06 13:31:48 20.4 42 15.1
003938FD 2018-10-06 12:29:57 20.4 42 16
003938FD 2018-10-06 11:28:08 20.4 42 16.2
003938FD 2018-10-06 10:26:19 20.4 42 16.2
003938FD 2018-10-06 09:24:30 20.4 42 16.1
003938FD 2018-10-06 08:22:41 20.4 42 16.2
003938FD 2018-10-06 07:20:49 20.6 43 16.4
003938FD 2018-10-06 06:18:59 20.6 43 16.5
003938FD 2018-10-06 05:17:09 20.6 43 16.3
003938FD 2018-10-06 04:15:22 20.6 43 16.6
003938FD 2018-10-06 03:13:32 20.6 43 16.7
003938FD 2018-10-06 02:11:43 20.6 43 17
003938FD 2018-10-06 01:09:55 20.6 44 16.9
003938FD 2018-10-06 00:08:06 20.7 44 17.2
003938FD 2018-10-05 23:06:15 20.7 44 17.4
003938FD 2018-10-05 22:04:25 20.7 44 17.7
003938FD 2018-10-05 21:02:33 20.8 44 18
003938FD 2018-10-05 20:00:42 20.8 44 18.4
003938FD 2018-10-05 18:58:52 20.8 45 18.4
003938FD 2018-10-05 17:56:58 20.8 45 18.6
003938FD 2018-10-05 16:55:08 21 45 19.1
003938FD 2018-10-05 15:53:17 21.2 45 19.4
003938FD 2018-10-05 14:51:22 21.4 46 20.2
003938FD 2018-10-05 13:49:26 21.3 48 19.1
003938FD 2018-10-05 12:47:32 21.2 47 20.7
003938FD 2018-10-05 11:45:35 21.2 45 23.4
003938FD 2018-10-05 10:43:43 21.3 52 0